Accueil
METAR-TAF:

METAR-TAF

Aéroports :

Brigham City, Utah, États-Unis

latitude: 41-33-09N, longitude: 112-03-44W, altitude: 1289 m

Observation

Le bulletin a été fait il y a 26 minutes, à 03:35 UTC
Vent calme
Température 7°C
Humidité 70%
Pression 1020 hPa
Visibilité: 16.1 km
Ciel couvert à une hauteur de 7500 ft

METAR: KBMC 270335Z AUTO 00000KT 10SM OVC075 07/02 A3012 RMK AO1 T00720015

Heure: 22:01 (04:01 UTC)


TAF: absent

Observations et prévisions météorologiques de plus de 4000 aéroports (messages METAR et TAF).

Les stations disponibles sont représentées par des disques jaunes et rouges sur la carte.

Passer la souris dessus pour voir le nom de la station.

Cliquer dessus pour voir les observations et prévisions météorologiques.

Pour changer de carte: cliquez sur les boutons verts avec une croix noire pour zoomer, sur le bouton vert avec un tiret pour effectuer un zoom arrière, ou sur les flèches vertes pour les cartes adjacentes.


METAR-TAF: